Погода Докшицы

Погода Докшицы : погода сейчас, прогноз погоды и архив. Всё, что Вы хотите узнать о погоде Докшицы!

Поиск расширенной информации на нашем сайте:

Другие новости

Новости СМИ2

Главная страница сайта

Новости сайта

03.07.2017

Напоминаем, что на нашем специализированном сайте Метеоцентр.Азия вы можете получить высокодетализированные автоматические прогнозы погоды по пунктам России, СНГ и мира в авиационном формате (включающие направление и скорость ветра, видимость, явления погоды, количество и форму облачности, нижнюю и верхнюю границу облачности).

Рекомендуем: Изучение английского на www.newmetod.ru

Погода Докшицы - сегодня

Время (UTC), дата Ветер
(°,м/с) 
Видим.   Явления Облачность Т
(°С)
Тd
(°С)
f(%) Тe
(°С)
Pmin
(гПа)
dP
(гПа)
Po
(мм)
O2
(г/м3)
Тmin Tmax R s Состояние
почвы
12 11.08.18 360 (С) 20000 м  {ливн. осадки}  8/8 750 м 
[Sc]
+21.6 +17.9 79 +36  1019  -1.4  748  275      0.5     
18 11.08.18 160 (Ю) 20000 м    5/0 средняя, верхняя 
[Ac und|Ci fib]
+20 +15.7 76 +30  1014.7  -1.5  744  276    +26.9     
06 12.08.18 240 (ЮЗ) 20000 м  {ливн. осадки}  9/9 800 м 
[Sc]
+15.6 +13.7 88 +22  1014.3  0.3  744  281  +14.9       
12 12.08.18 240 (ЮЗ) 9-13{15}  20000 м    8/8 800 м 
[Cu med, cong]
+20.9 +8.5 45 +21  1013.5  -0.2  743  277           
18 12.08.18 220 (ЮЗ) 3{14}  20000 м    4/0 средняя, верхняя 
[Ac und|Ci fib]
+16.4 +7.2 54 +17  1013.7  743  281    +21.7       
06 13.08.18 230 (ЮЗ) 20000 м    9/0 средняя 
[Ac As]
+14.3 +10.1 76 +15  1013.4  0.2  743  283  +11.4         
09 13.08.18 240 (ЮЗ) 20000 м    9/0 средняя 
[Ac As]
+16.4 +11.9 75 +21  1013.7  0.5  743  280           
12 13.08.18 210 (ЮЗ) 20000 м    9/0 средняя 
[Ac As]
+17.6 +11.1 66 +21  1013.3  -0.3  743  279           
18 13.08.18 180 (Ю) 20000 м  {ливн. осадки}  9/0 средняя 
[Ac As]
+14.6 +13.8 95 +23  1012.3  -0.9  742  281    +17.6  0.8     
06 14.08.18 090 (В) 20000 м  {ливн. осадки}  8/0 средняя 
[Ac und]
+15.2 +13 87 +22  1013  0.1  743  281  +11.3    0.1     
09 14.08.18 110 (В) 20000 м    6/6 800 м 
[Sc]
+21.6 +14.8 65 +30  1012.3  -0.1  743  274           
12 14.08.18 120 (ЮВ) 20000 м    8/8 800 м 
[Sc]
+25 +16.4 59 +37  1010.9  -1  742  270           
15 14.08.18 160 (Ю) 20000 м    8/8 800 м верхняя 
[Cu med, cong|Ci fib]
+26.7 +16 52 +38  1009  -1.8  740  268           
18 14.08.18 130 (ЮВ) 20000 м    9/0 средняя 
[Ac As]
+21.8 +15.2 66 +31  1008.8  -0.6  740  273    +27.1       
06 15.08.18 250 (З) 13000 м  {ливн. осадки}  9/9 330 м 
[Sc]
+17.9 +16.7 93 +30  1009.3  0.8  740  276  +16.7       
09 15.08.18 260 (З) 20000 м    8/8 720 м 
[Cu med, cong]
+21.1 +16 73 +32  1010.1  741  274           
12 15.08.18 250 (З) 4{10}  20000 м    9/9 750 м 
[Sc]
+21.1 +15.6 71 +31  1011.2  1.1  742  274           
18 15.08.18 240 (ЮЗ) 20000 м  {ливн. осадки}  8/0 средняя 
[Ac und]
+19.2 +16.9 87 +32  1012.4  0.8  743  276    +23.7  0.8     
06 16.08.18 300 (СЗ) 9000 м  дымка{ливн. осадки}  9/9 300 м 
[Sc]
+16.4 +15.9 97 +27  1017.3  1.6  746  280  +14.6    0.1     
09 16.08.18 290 (З) 20000 м    9/9 800 м 
[Sc]
+18.4 +16.7 90 +31  1018.2  1.1  747  278           
12 16.08.18 340 (С) 20000 м  {ливн. осадки}  8/8 800 м 
[Sc]
+22.2 +16.9 72 +34  1018.3  0.4  747  275      0.1     
18 16.08.18 030 (СВ) 20000 м    4/0 средняя 
[Ac und]
+18.4 +15.9 85 +30  1019.7  0.8  748  279    +23  0.1     
06 17.08.18 090 (В) 18000 м  {ливн. осадки, туман}  8/8 400 м 
[Frnb]
+17.2 +16.1 93 +29  1021.5  0.3  749  280  +11.5    0.1     
09 17.08.18 100 (В) 20000 м    8/8 720 м 
[Cu med, cong]
+22.4 +15.2 64 +31  1021.2  0.2  749  276           
12 17.08.18 080 (В) 20000 м    8/8 750 м 
[Cu med, cong]
+23.3 +15 60 +32  1020.4  -0.7  749  275           
Время (UTC), дата Ветер
(°,м/с) 
Видим.   Явления Облачность Т
(°С)
Тd
(°С)
f(%) Тe
(°С)
Pmin
(гПа)
dP
(гПа)
Po
(мм)
O2
(г/м3)
Тmin Tmax R s Состояние
почвы

Для получения пояснительной информации подведите курсор к названию столбца.

ПОГОДА Докшицы - архив

Всё, что Вы хотите узнать о погоде Докшицы - удобно и подробно!

Выберите нужную дату (начиная с 1 января 2015* года) и нажмите кнопку "Найти".
Будут отображены архивные сводки погоды по пункту Докшицы, начиная с указанной даты.


Отображать данные в формате CSV (для использования в таблицах Excel)


Внимание! Наш архив погоды предназначен исключительно для личного некоммерческого использования в познавательных целях. Если Вам необходимы официальные справки о состоянии погоды (для производственных, юридических, коммерческих и т.п. целей), обращайтесь в органы Росгидромета.

*Примечание: данная дата относится к архиву по метеостанциям СССР (Россия, СНГ, Балтия).
Архив по метеостанциям Зарубежной Европы и Азии (кроме Китая) хранится 10 дней, по другим регионам земного шара (Китай, Африка, Америка, Австралия, Океания) - 1 день.

Докшицы - район местоположения метеостанции


Название, широта, долгота, высота метеостанции:
Докшицы 54.9°ш. 27.8°д. 193 м над ур. моря [Беларусь]

Дополнительная информация

В oтличие oт бoльшинства пoгoдных сайтoв мы публикуем пoдрoбную метеoинфoрмацию в детальнoм прoфессиoнальнoм фoрмате.

Характеристики температуры и влажнoсти вoздуха измеряются на высoте 2 м в тени вдали oт зданий и деревьев.
Скoрoсть ветра измеряется на высoте 10 м (на урoвне рoста челoвека скoрoсть ветра ниже в 1.5-2 раза). Если метеoстанция нахoдится в гoрoде или в лесу, тo скoрoсть ветра занижена на 2-4 м/с пo сравнению с oткрытым местoм. Скoрoсть ветра над акватoриями крупных рек и oзёр, а также на вершинах хoлмoв на 2-5 м/с выше, чем в oбычных услoвиях.
Атмoсфернoе давление в разных тoчках местнoсти мoжет значительнo oтличаться oт давления на метеoстанции, в зависимoсти oт услoвий рельефа (при пoдъёме на 10 м давление пoнижается примернo на 1 мм рт.ст.).